Regional Weather Roundup
Issued by NWS Charleston, SC

Current Version | Previous Version | Text Only | Print | Product List | Glossary Off
Versions: 1 2 3 4 5 6 7 8 9 10 11 12 13 14 15 16 17 18 19 20 21 22 23 24 25 26 27 28 29 30 31 32 33 34 35 36 37 38 39 40 41 42 43 44 45 46 47 48 49 50

000
ASUS42 KCHS 312025
RWRCHS

REGIONAL WEATHER ROUNDUP
NATIONAL WEATHER SERVICE CHARLESTON SC
400 PM EDT FRI OCT 31 2014

NOTE: "FAIR" INDICATES FEW OR NO CLOUDS BELOW 12,000 FEET WITH NO
SIGNIFICANT WEATHER AND/OR OBSTRUCTIONS TO VISIBILITY.

NOT ALL STATIONS ARE QUALITY CONTROLLED BY THE NATIONAL
WEATHER SERVICE. USE DATA WITH CAUTION...ESPECIALLY
DEWPOINT OBSERVATIONS.

SCZ027-030-031-034>040-042>050-312100-
...SOUTH CAROLINA...

CITY           SKY/WX    TMP DP  RH WIND       PRES   REMARKS
N CHARLESTON   MOSUNNY   69  42  37 N8        29.80F
WATERFRONT PRK   N/A     66 N/A N/A N8          N/A
FORT JOHNSON   NOT AVBL
JOHNS ISLAND   MOCLDY    70  46  43 NW3       29.80S
PINOPOLIS      NOT AVBL
MONCKS CORNER  FAIR      68  50  52 CALM      29.80S
SUMMERVILLE    FAIR      70  43  37 CALM      29.81S
BEAUFORT MCAS  MOSUNNY   71  45  39 N5        29.79F
BEAUFORT ARPT  FAIR      70  46  43 CALM      29.78F
HILTON HEAD IS SUNNY     72  46  40 N9        29.81F
GEORGETOWN     NOT AVBL
WALTERBORO     CLEAR     70  36  28 N5        29.80F
ORANGEBURG     SUNNY     69  39  33 SE6       29.79F
BARNWELL       FAIR      70  45  40 CALM      29.80F
AIKEN          CLOUDY    66  46  48 N3        29.82F
MANNING        MOCLDY    68  45  42 CALM      29.79F
KINGSTREE      NOT AVBL
COLUMBIA       MOSUNNY   69  42  37 SW3       29.79F
SUMTER         PTSUNNY   68  43  41 N8        29.78F
FLORENCE       MOSUNNY   67  43  41 N5        29.80F
MYRTLE BEACH   MOSUNNY   66  43  42 N12       29.78F
N MYRTLE BEACH MOSUNNY   68  43  40 N12       29.78F

$$

GAZ063-065-086>088-099>101-113>116-118-119-134-136>141-150-312100-
...GEORGIA...

CITY           SKY/WX    TMP DP  RH WIND       PRES   REMARKS
SAVANNAH ARPT  PTSUNNY   73  46  38 NW6       29.79F
HUNTER AAF     PTSUNNY   71  47  42 N9        29.77F
FORT STEWART   SUNNY     71  47  42 SW9       29.78F
STATESBORO     NOT AVBL
SYLVANIA       MOCLDY    73  54  51 CALM      29.79F
CLAXTON        FAIR      72  48  43 W7        29.79F
THOMSON        CLOUDY    69  50  49 NW8       29.84F
AUGUSTA-BUSH   MOSUNNY   71  43  36 N7        29.79F
AUGUSTA-DANIEL PTSUNNY   69  44  40 NW6       29.80F
SWAINSBORO     FAIR      73  43  33 NW8       29.80S
VIDALIA        SUNNY     72  43  35 W8        29.80F
ALMA           SUNNY     73  35  25 NW10      29.81F
WAYCROSS       SUNNY     76  43  30 NW10      29.80F
JESUP          FAIR      75  50  41 W12       29.80S
BRUNSWICK      MOSUNNY   70  50  49 CALM      29.80S
SAINT SIMONS   MOSUNNY   73  47  39 NW7       29.79F

$$

SCZ027-028-034-036>038-045-046-048>050-GAZ119-141-312100-
...LAKE AND SUPPLEMENTAL COASTAL OBSERVATIONS...

STATION/POSITION TIME  TEMP    WIND        PRES    WAVE   SWELL
                       AIR SEA DIR/SP/G            HT/PER HT/PER/DIR
                 (UTC) (F)     (DEG/KT/KT) (MB)    (FT/S) (FT/S/D)
UPR LAKE MARION  NOT AVBL
WINYAH BAY       2000   65      60/  7     1008.0S
LAKE MURRAY      2000   66     140/  3/  4 1008.5F
ACE BASIN NERRS  2000   70     340/  2     1009.0S
FORT PULASKI     2000   69     360/  6/ 10 1008.9F
SAPELO ISLAND    NOT AVBL

$$

ANZ835-935-AMZ111-154-330-350-352-354-374-450-454-472-312100-
...C-MAN AND BUOY OBSERVATIONS...

STATION/POSITION TIME  TEMP    WIND        PRES    WAVE   SWELL
                       AIR SEA DIR/SP/G            HT/PER HT/PER/DIR
                 (UTC) (F)     (DEG/KT/KT) (MB)    (FT/S) (FT/S/D)
FOLLY BEACH CMAN 2000   67      30/  2/  3 1009.4F
BUOY 41004       2000   66 76  350/ 12/ 17 1007.8F   5/ 7   3/ 7
BUOY 41008       2000   67 74   20/  8/ 10 1008.9F   3/ 7   3/ 70/ 7
5E ST. MARYS GA  2000      76                N/A     3/ 6
FRYING PAN BUOY  2000   64 73   20/ 14/ 17 1008.0F   5/ 7   3/ 70/ 7
BUOY 41025       2000   64     340/ 21/ 29 1006.4S   6/ 7   2/ 60/ 9
CAPE LOOKOUT NC  2000   63      20/ 11/ 13 1007.6F
BUOY 41002       1909   74 78  250/ 10/ 12 1006.1S   4/ 8   3/100/ 8
BUOY 41010       2000   72 81  270/  4/  6 1007.4S   3/ 8   3/110/ 8
BUOY 41012       NOT AVBL
ST AUGUSTINE FL  2000   70     360/ 12/ 14 1009.3F
CAPERS NEARSHORE 1900   65      70/  8/ 10   N/A
FRIPP NEARSHORE  NOT AVBL


$$



USA.gov is the U.S. government's official web portal to all federal, state and local government web resources and services.